Regional Weather Roundup
Issued by NWS

Home | Current Version | Previous Version | Graphics & Text | Print | Product List | Glossary On
Versions: 1 2 3 4 5 6 7 8 9 10 11 12 13 14 15 16 17 18 19 20 21 22 23 24 25 26 27 28
000
ASUS45 KBOU 241010
RWRCO

WEATHER ROUNDUP FOR COLORADO
NATIONAL WEATHER SERVICE DENVER/BOULDER CO
400 AM MDT SAT SEP 24 2016

NOTE: "FAIR" INDICATES FEW OR NO CLOUDS BELOW 12000 FEET WITH NO
SIGNIFICANT WEATHER AND/OR OBSTRUCTIONS TO VISIBILITY.

COZ001>005-013-030-031-241100-
...NORTHWEST COLORADO...

CITY           SKY/WX    TMP DP  RH WIND       PRES   REMARKS
CRAIG          CLOUDY    41  37  86 SE6       30.06S
HAYDEN         CLOUDY    37  32  81 E6        30.06S
MEEKER         CLOUDY    42  36  79 W5        30.06F
MOUNT WERNER   NOT AVBL
STEAMBOAT SPGS CLOUDY    37  34  89 E3        30.06F
WALDEN           N/A     32  30  93 S5        30.06F WCI  27
$$

COZ006>008-011-241100-
...WEST CENTRAL VALLEYS...

CITY           SKY/WX    TMP DP  RH WIND       PRES   REMARKS
GRAND JUNCTION CLOUDY    48  41  76 CALM      30.08R
MONTROSE       CLOUDY    43  37  79 W3        30.13S
EAGLE          CLOUDY    36  34  93 E7        30.12F
RIFLE          CLOUDY    44  42  93 E3        30.09F
DELTA          NOT AVBL
NUCLA          CLOUDY    45  34  65 E6        30.15S
$$

COZ017>023-064>068-241100-
...SOUTHWEST COLORADO...

CITY           SKY/WX    TMP DP  RH WIND       PRES   REMARKS
DURANGO        FAIR      33  30  88 E5        30.17F WCI  29
CORTEZ         CLOUDY    42  38  85 CALM      30.15S
PAGOSA SPRINGS FAIR      29  29 100 CALM      30.21S
TELLURIDE      CLOUDY    37  26  64 CALM      30.22S
WOLF CREEK PAS FAIR      21  21 100 MISG      30.29S
$$

COZ009-010-012-014-032>034-037-058>063-241100-
...CENTRAL COLORADO...

CITY           SKY/WX    TMP DP  RH WIND       PRES   REMARKS
ASPEN          CLOUDY    34  32  92 CALM      30.10F
BUENA VISTA    FAIR      32  28  83 NW5       30.14F WCI  27
COPPER MTN     CLOUDY    28  18  64 MISG      30.19F
BERTHOUD PASS  FAIR      18   3  53 W17       30.17S WCI   2
COTTONWOOD PAS FAIR      36  19  51 W18G28    30.16F
GUNNISON       MOCLDY    32  30  92 N5        30.19S WCI  27
KREMMLING      CLOUDY    36  28  75 SE3       30.10R
LEADVILLE      MOCLDY    29  18  63 SE9       30.15F WCI  20
MONARCH PASS   FAIR      21  19  93 W20       30.32F WCI   6
SALIDA         FAIR      38  30  73 SW12      30.21F
SUNLIGHT       LGT SNOW  30  30 100 MISG      30.18S
WILKERSON PASS FAIR      23  21  93 SW17G24   30.17F WCI   9
$$

COZ069>075-241100-
...SAN LUIS VALLEY/SANGRE DE CRISTO MOUNTAINS...

CITY           SKY/WX    TMP DP  RH WIND       PRES   REMARKS
ALAMOSA        FAIR      26  24  92 NW5       30.18S WCI  20
LA VETA PASS   FAIR      32  25  74 MISG      30.14S
SAGUACHE       NOT AVBL
$$

COZ035-036-038>040-241100-
...NORTHERN COLORADO FRONT RANGE...

CITY           SKY/WX    TMP DP  RH WIND       PRES   REMARKS
DENVER INTL AP FAIR      41  36  82 SE10      29.99R
DMNS CITY PARK   N/A     49  32  50 S12       29.99S
AURORA         PTCLDY    42  35  74 S10       30.01S
FRONT RANGE AP FAIR      43  36  75 SE13      30.00F
ERIE MUNI ARPT FAIR      46  38  76 SW7G17    29.99R
BOULDER MUN AP FAIR      43  39  87 NW6       29.98S
CENTENNIAL     FAIR      48  21  34 SW13      30.02R
BROOMFIELD     FAIR      48  34  57 SW5       30.01R
FORT COLLINS   FAIR      43  41  93 S7        30.00R
LONGMONT       FAIR      46  41  84 S3        30.02R
$$

COZ041-046-047-076>085-087-088-241100-
...PIKES PEAK/PALMER DIVIDE AND SOUTHERN FOOTHILLS...

CITY           SKY/WX    TMP DP  RH WIND       PRES   REMARKS
COLO. SPRINGS  FAIR      46  19  34 SE12      30.02R
A. F. ACADEMY  FAIR      47  17  30 NW13G21   30.00F
SCHRIEVER AFB  NOT AVBL
ELLICOTT       FAIR     N/A N/A N/A S5        30.03R
FALCON         FAIR      47  15  27 W10       30.04R
FORT CARSON    FAIR      44  21  39 E6        29.99R
LIMON          FAIR      39  34  82 CALM      30.02R
MONUMENT HILL  FAIR      41  19  42 W12       30.07R
TRINIDAD       MOCLDY    46  27  47 N3        30.03R
$$

COZ042>045-048>051-090-091-241100-
...NORTHEAST COLORADO...

CITY           SKY/WX    TMP DP  RH WIND       PRES   REMARKS
GREELEY ARPT   FAIR      43  39  87 S6        29.98R
AKRON          FAIR      43  36  76 N15       29.97R
BURLINGTON     FAIR      49  43  80 NW14      29.97R
WRAY           FAIR      52  43  71 N18       29.94
STERLING       FAIR      46  37  71 N18G24    29.94R
HOLYOKE        CLOUDY    54  45  71 NW15      29.95S
FORT MORGAN    FAIR      44  35  70 N13       29.96S
$$

COZ086-089-092>099-241100-
...SOUTHEAST COLORADO...

CITY           SKY/WX    TMP DP  RH WIND       PRES   REMARKS
PUEBLO         FAIR      54  22  28 NW10      29.96F
LA JUNTA       FAIR      51  28  41 W8        29.97R
LAMAR          FAIR      47  34  60 CALM      29.96R
SPRINGFIELD    NOT AVBL
$$




USA.gov is the U.S. government's official web portal to all federal, state and local government web resources and services.